| time (UTC) | temp F | wind direction | speed knots | gust knots | rain 1hr in | rain 24hr in | rain mn in | humidity % | barometer mb |
| 20260506110043 | 64 | 215 | 11.3 | 26.1 | 0.00 | 0.00 | 0.00 | 71 | 1013.4 |
| 20260506104538 | 63 | 255 | 10.4 | 23.5 | 0.00 | 0.00 | 0.00 | 71 | 1013.4 |
| 20260506103036 | 63 | 186 | 7.8 | 26.1 | 0.00 | 0.00 | 0.00 | 72 | 1013.1 |
| 20260506101535 | 62 | 233 | 8.7 | 20.0 | 0.00 | 0.00 | 0.00 | 73 | 1013.3 |
| 20260506100031 | 61 | 232 | 5.2 | 13.0 | 0.00 | 0.00 | 0.00 | 74 | 1013.2 |
| 20260506094529 | 60 | 248 | 7.0 | 18.2 | 0.00 | 0.00 | 0.00 | 75 | 1013.0 |
| 20260506093032 | 60 | 244 | 6.1 | 14.8 | 0.00 | 0.00 | 0.00 | 74 | 1012.8 |
| 20260506091522 | 60 | 201 | 7.0 | 15.6 | 0.00 | 0.00 | 0.00 | 73 | 1012.7 |
| 20260506090021 | 59 | 254 | 8.7 | 19.1 | 0.00 | 0.00 | 0.00 | 73 | 1012.5 |
| 20260506084519 | 59 | 221 | 7.0 | 21.7 | 0.00 | 0.00 | 0.00 | 72 | 1012.4 |
| 20260506083027 | 59 | 232 | 6.1 | 14.8 | 0.00 | 0.00 | 0.00 | 72 | 1011.7 |
| 20260506081517 | 59 | 230 | 8.7 | 21.7 | 0.00 | 0.00 | 0.00 | 71 | 1011.6 |
| 20260506080119 | 59 | 238 | 5.2 | 13.9 | 0.00 | 0.00 | 0.00 | 70 | 1011.5 |
| 20260506073011 | 59 | 265 | 4.3 | 20.9 | 0.00 | 0.00 | 0.00 | 70 | 1011.6 |
| 20260506071507 | 59 | 223 | 7.0 | 14.8 | 0.00 | 0.00 | 0.00 | 72 | 1011.4 |
| 20260506061502 | 59 | 221 | 6.1 | 19.1 | 0.00 | 0.00 | 0.00 | 70 | 1011.5 |
| 20260506044555 | 60 | 256 | 7.0 | 17.4 | 0.00 | 0.00 | 0.00 | 67 | 1011.5 |
| 20260506043053 | 60 | 236 | 7.8 | 15.6 | 0.00 | 0.00 | 0.00 | 68 | 1011.9 |
| 20260506041548 | 60 | 250 | 6.1 | 17.4 | 0.00 | 0.00 | 0.00 | 67 | 1011.7 |
| 20260506040046 | 61 | 306 | 9.6 | 19.1 | 0.00 | 0.00 | 0.00 | 67 | 1011.4 |
| 20260506034604 | 61 | 224 | 7.8 | 20.0 | 0.00 | 0.00 | 0.00 | 67 | 1011.4 |
| 20260506033041 | 61 | 219 | 6.1 | 19.1 | 0.00 | 0.00 | 0.00 | 66 | 1011.3 |
| 20260506031548 | 61 | 175 | 7.8 | 20.0 | 0.00 | 0.00 | 0.00 | 65 | 1011.1 |
| 20260506030036 | 61 | 284 | 10.4 | 22.6 | 0.00 | 0.00 | 0.00 | 65 | 1010.9 |
| 20260506024536 | 62 | 211 | 7.0 | 20.0 | 0.00 | 0.00 | 0.00 | 64 | 1011.0 |
| 20260506023036 | 62 | 206 | 6.1 | 18.2 | 0.00 | 0.00 | 0.00 | 62 | 1011.0 |
| 20260506021534 | 63 | 46 | 7.8 | 26.1 | 0.00 | 0.00 | 0.00 | 61 | 1011.1 |
| 20260506020035 | 63 | 234 | 13.0 | 22.6 | 0.00 | 0.00 | 0.00 | 61 | 1010.9 |
| 20260506014534 | 63 | 222 | 9.6 | 24.3 | 0.00 | 0.00 | 0.00 | 61 | 1011.0 |
| 20260506013034 | 63 | 231 | 10.4 | 23.5 | 0.00 | 0.00 | 0.00 | 60 | 1010.8 |
| 20260506011532 | 63 | 221 | 9.6 | 21.7 | 0.00 | 0.00 | 0.00 | 58 | 1010.9 |
| 20260506010048 | 63 | 202 | 6.1 | 22.6 | 0.00 | 0.00 | 0.00 | 56 | 1010.6 |
| 20260506004527 | 63 | 175 | 10.4 | 20.9 | 0.00 | 0.00 | 0.00 | 55 | 1010.4 |
| 20260506003025 | 63 | 233 | 10.4 | 26.9 | 0.00 | 0.00 | 0.00 | 54 | 1010.2 |
| 20260506001529 | 63 | 270 | 8.7 | 21.7 | 0.00 | 0.00 | 0.00 | 52 | 1009.9 |
| 20260506000125 | 64 | 224 | 7.8 | 25.2 | 0.00 | 0.00 | 0.00 | 51 | 1009.8 |
| 20260505234524 | 64 | 209 | 8.7 | 19.1 | 0.00 | 0.00 | 0.00 | 48 | 1009.8 |
| 20260505233023 | 64 | 236 | 6.1 | 26.1 | 0.00 | 0.00 | 0.00 | 47 | 1009.5 |
| 20260505231522 | 65 | 221 | 6.1 | 20.9 | 0.00 | 0.00 | 0.00 | 47 | 1009.5 |
| 20260505230031 | 65 | 201 | 4.3 | 19.1 | 0.00 | 0.00 | 0.00 | 46 | 1009.2 |
| 20260505224522 | 66 | 252 | 5.2 | 18.2 | 0.00 | 0.00 | 0.00 | 46 | 1009.5 |
| 20260505223019 | 67 | 229 | 6.1 | 15.6 | 0.00 | 0.00 | 0.00 | 44 | 1009.6 |
| 20260505221519 | 69 | 236 | 5.2 | 11.3 | 0.00 | 0.00 | 0.00 | 44 | 1009.7 |
| 20260505220025 | 70 | 225 | 5.2 | 12.2 | 0.00 | 0.00 | 0.00 | 42 | 1009.8 |
| 20260505214518 | 71 | 237 | 4.3 | 19.1 | 0.00 | 0.00 | 0.00 | 43 | 1009.5 |
| 20260505213023 | 72 | 230 | 7.0 | 15.6 | 0.00 | 0.00 | 0.00 | 42 | 1009.4 |
| 20260505210017 | 75 | 327 | 8.7 | 20.9 | 0.00 | 0.00 | 0.00 | 40 | 1009.3 |
| 20260505204513 | 75 | 254 | 5.2 | 13.9 | 0.00 | 0.00 | 0.00 | 40 | 1009.0 |
| 20260505203023 | 76 | 242 | 5.2 | 15.6 | 0.00 | 0.00 | 0.00 | 37 | 1009.0 |
| 20260505201512 | 76 | 254 | 5.2 | 19.1 | 0.00 | 0.00 | 0.00 | 41 | 1009.0 |
| 20260505200010 | 76 | 261 | 6.1 | 16.5 | 0.00 | 0.00 | 0.00 | 39 | 1009.1 |
| 20260505194508 | 76 | 218 | 5.2 | 11.3 | 0.00 | 0.00 | 0.00 | 38 | 1009.2 |
| 20260505193006 | 76 | 275 | 4.3 | 13.9 | 0.00 | 0.00 | 0.00 | 38 | 1009.1 |
| 20260505191506 | 75 | 222 | 7.0 | 15.6 | 0.00 | 0.00 | 0.00 | 39 | 1009.1 |
| 20260505190004 | 75 | 248 | 7.0 | 16.5 | 0.00 | 0.00 | 0.00 | 42 | 1009.1 |
| 20260505184503 | 75 | 157 | 7.0 | 21.7 | 0.00 | 0.00 | 0.00 | 41 | 1009.1 |
| 20260505183001 | 76 | 219 | 6.1 | 15.6 | 0.00 | 0.00 | 0.00 | 40 | 1009.1 |
| 20260505181559 | 75 | 224 | 4.3 | 17.4 | 0.00 | 0.00 | 0.00 | 40 | 1009.1 |
| 20260505180056 | 75 | 256 | 5.2 | 20.0 | 0.00 | 0.00 | 0.00 | 41 | 1009.1 |
| 20260505174555 | 75 | 193 | 4.3 | 15.6 | 0.00 | 0.00 | 0.00 | 41 | 1009.1 |
| 20260505173054 | 74 | 203 | 5.2 | 14.8 | 0.00 | 0.00 | 0.00 | 43 | 1009.4 |
| 20260505171558 | 74 | 238 | 5.2 | 13.9 | 0.00 | 0.00 | 0.00 | 45 | 1009.5 |
| 20260505170148 | 74 | 215 | 7.0 | 11.3 | 0.00 | 0.00 | 0.00 | 43 | 1009.5 |
| 20260505164546 | 73 | 265 | 3.5 | 15.6 | 0.00 | 0.09 | 0.00 | 48 | 1009.4 |
| 20260505163044 | 72 | 243 | 2.6 | 7.8 | 0.00 | 0.09 | 0.00 | 48 | 1009.4 |
| 20260505161541 | 71 | 259 | 1.7 | 8.7 | 0.00 | 0.09 | 0.00 | 50 | 1009.6 |
| 20260505153029 | 67 | 248 | 3.5 | 9.6 | 0.00 | 0.28 | 0.00 | 53 | 1009.4 |
| 20260505151532 | 66 | 180 | 1.7 | 12.2 | 0.00 | 0.28 | 0.00 | 56 | 1009.8 |
| 20260505140114 | 63 | 211 | 0.9 | 8.7 | 0.00 | 0.40 | 0.00 | 52 | 1010.2 |
| 20260505124558 | 57 | 170 | 1.7 | 10.4 | 0.00 | 0.52 | 0.00 | 60 | 1010.0 |
| 20260505123055 | 57 | 206 | 7.0 | 13.0 | 0.00 | 0.52 | 0.00 | 63 | 1009.8 |
| 20260505121551 | 56 | 178 | 2.6 | 10.4 | 0.00 | 0.52 | 0.00 | 62 | 1009.7 |
| 20260505120105 | 55 | 189 | 7.8 | 15.6 | 0.00 | 0.52 | 0.00 | 63 | 1009.3 |
| 20260505114543 | 55 | 207 | 6.1 | 15.6 | 0.00 | 0.54 | 0.00 | 64 | 1009.0 |
| 20260505113044 | 53 | 177 | 5.2 | 12.2 | 0.00 | 0.54 | 0.00 | 67 | 1009.0 |
| 20260505111534 | 52 | 237 | 5.2 | 10.4 | 0.00 | 0.54 | 0.00 | 70 | 1008.9 |